Theta_e
292 292 293 294 294 295 296 298 302 305 306 310 313 314 315 316 317 317 318 319 320 320 320 320 321 321 321 321 321 320 319 319 319 319 320 320 319 318 318 318 318 318 318 320 321 321 321 321 322 322 321 321 321 320 321 321 322 321 320 320 319 320
291 291 292 292 293 293 293 294 295 301 305 306 308 309 310 311 313 314 315 317 318 319 319 319 320 320 321 320 320 319 319 319 319 319 318 319 317 318 318 318 317 317 317 317 318 319 319 319 320 320 320 320 320 320 319 318 318 318 318 317 317 318
290 288 288 289 288 288 289 292 295 299 301 304 306 308 309 310 312 312 314 315 316 316 317 317 317 318 319 319 318 319 319 319 318 319 319 316 316 316 316 316 316 317 316 317 316 317 317 318 318 319 319 319 318 316 317 316 315 315 315 314 313 312
289 288 287 286 285 288 288 290 291 293 297 302 304 305 307 309 309 310 312 312 314 314 315 315 314 315 315 317 317 317 318 318 317 317 314 314 315 313 315 315 315 315 316 316 316 315 316 316 318 317 317 315 315 314 315 314 312 312 312 310 311 309
288 288 287 287 287 289 290 290 292 294 294 295 298 302 305 307 309 308 308 309 310 310 311 311 311 312 313 314 316 315 316 316 314 311 312 312 311 310 313 313 313 313 314 314 314 315 314 315 315 315 314 314 314 313 313 313 311 310 309 308 308 308
287 287 288 289 289 290 290 289 290 291 292 293 294 297 301 301 302 302 303 304 306 306 305 307 308 308 310 311 313 313 314 313 311 308 310 310 310 309 308 309 311 311 311 311 311 311 312 312 312 311 310 313 311 310 312 310 309 309 309 309 308 308
287 290 289 289 289 288 289 289 290 290 291 291 292 295 295 296 296 299 300 300 301 300 302 303 304 306 307 309 309 310 310 308 307 305 308 307 307 308 306 304 305 307 308 308 309 309 309 310 309 310 308 308 308 310 310 309 307 306 306 306 305 301
287 287 287 287 287 289 289 289 288 288 289 291 291 292 291 291 291 294 296 295 298 299 300 301 301 304 306 307 308 308 307 305 305 305 304 306 308 305 304 305 302 303 305 306 308 309 308 307 307 307 308 306 304 305 306 305 303 302 301 300 300 299
288 288 287 287 287 287 288 289 290 289 289 290 290 290 290 289 289 291 293 293 295 299 299 299 300 302 303 304 305 304 303 303 303 302 303 301 305 304 302 301 302 301 304 304 305 306 306 305 304 304 305 304 303 303 302 299 298 298 297 297 297 297
287 287 287 287 288 287 287 288 289 290 291 292 291 290 290 290 288 289 290 291 292 295 298 298 298 299 300 301 301 301 301 301 300 301 301 299 303 303 302 302 302 300 300 302 302 303 301 303 302 302 301 301 301 299 298 297 297 296 294 293 292 292
289 288 287 287 287 288 288 288 288 288 288 289 289 289 290 291 289 289 290 290 291 293 295 296 296 296 296 296 298 298 299 299 299 298 298 297 299 300 301 302 302 297 296 294 296 297 296 299 301 300 299 298 296 298 298 297 296 294 293 292 291 290
287 288 287 288 288 289 289 289 289 289 289 290 289 289 291 290 289 289 290 290 291 294 294 294 294 294 295 295 296 298 297 297 297 296 295 296 296 295 293 294 295 297 298 296 293 293 295 297 297 293 294 296 299 297 298 296 294 293 294 293 291 289
287 286 287 288 289 289 290 291 290 289 289 289 289 289 290 290 289 290 290 291 291 293 294 294 293 294 294 295 296 296 295 296 295 295 295 294 293 293 292 293 294 294 294 296 296 294 294 295 295 291 294 296 296 296 296 296 294 294 293 292 292 291
287 287 288 288 289 289 290 290 290 289 291 290 289 289 290 290 290 291 291 291 292 293 294 294 293 293 294 294 294 294 294 294 293 294 294 293 292 292 291 292 294 293 292 293 293 294 293 292 291 293 295 295 295 294 297 296 294 292 292 291 291 291
291 291 291 290 292 293 292 291 290 292 293 291 289 288 290 290 290 291 291 292 293 294 294 294 293 293 293 293 293 293 293 293 293 293 292 293 292 291 292 294 293 293 292 293 293 293 291 291 291 294 294 295 295 294 294 293 292 291 291 290 290 290
293 292 293 295 296 294 291 290 292 294 292 290 288 289 290 291 291 291 292 293 293 294 294 294 294 293 293 293 293 292 293 293 294 293 292 292 290 292 292 291 292 292 293 293 293 293 292 292 291 293 294 294 294 294 294 294 292 292 291 291 291 291
295 295 294 295 294 292 291 291 291 291 289 288 288 288 290 290 291 291 292 293 294 294 294 294 293 293 293 293 292 292 293 293 292 291 291 292 291 291 291 291 291 291 291 291 292 292 291 292 291 293 293 293 294 294 294 293 293 292 291 291 290 290
300 300 300 297 294 292 291 294 292 290 290 288 289 288 289 290 291 291 292 293 293 294 294 293 293 293 293 292 292 292 292 292 292 291 290 291 291 291 290 290 291 290 290 290 290 291 291 292 291 292 292 293 294 294 291 291 291 291 290 290 289 289
301 301 298 296 296 294 293 292 290 290 289 287 288 288 288 289 290 290 291 292 293 293 294 293 293 293 293 292 291 291 292 291 291 291 290 290 290 290 290 290 290 290 290 289 289 291 291 291 290 291 292 292 293 292 290 290 289 289 289 288 287 287
299 296 295 295 294 293 293 292 289 289 289 288 287 287 287 288 289 291 291 291 292 293 293 293 293 292 292 291 291 292 292 292 291 291 290 291 290 289 290 291 290 289 289 289 289 291 291 289 289 290 291 292 292 290 289 289 289 287 287 285 285 286
297 295 294 293 294 296 292 290 288 288 289 289 288 287 288 288 290 290 291 292 292 292 292 293 293 292 292 291 291 291 290 290 290 290 289 290 290 290 289 289 290 289 289 289 290 288 290 289 288 289 290 291 292 290 289 289 288 287 286 285 284 284
294 295 294 293 295 294 291 288 287 288 289 289 288 287 288 290 291 292 292 292 291 290 291 291 291 292 291 291 290 290 290 289 289 289 289 289 290 290 289 289 289 288 288 288 288 288 290 290 288 288 290 291 291 290 288 288 289 288 286 286 284 282
292 294 293 294 294 293 290 287 288 288 289 289 288 288 290 292 293 292 291 289 289 289 290 290 290 290 290 290 290 289 289 289 289 289 288 289 289 289 289 288 288 288 288 288 288 288 288 289 288 287 289 291 291 290 289 288 289 288 287 286 284 284
289 289 289 290 290 290 288 287 288 288 288 288 288 290 292 292 292 290 289 289 289 289 289 289 290 290 290 289 289 289 288 288 288 288 288 289 289 288 288 287 288 289 288 288 287 288 288 287 287 288 288 290 290 290 289 289 289 288 287 285 284 284
289 290 290 290 288 287 287 287 287 288 287 288 289 291 291 291 289 289 288 288 288 288 288 288 289 289 289 289 289 289 288 288 288 288 288 288 288 288 288 287 287 288 288 287 287 287 287 287 287 287 287 288 290 290 290 289 288 288 287 287 284 284
288 289 288 287 287 286 285 287 287 287 287 288 291 290 289 288 287 288 288 287 288 288 288 288 288 288 289 289 288 288 288 287 288 288 288 288 289 289 288 289 288 288 288 288 287 287 287 287 287 286 286 287 289 290 290 289 289 288 287 287 287 284
287 287 287 287 286 285 284 285 287 287 287 289 289 288 287 287 286 287 287 287 287 287 287 287 287 288 288 288 288 288 288 287 287 288 288 288 289 289 289 289 288 288 289 289 288 287 287 286 286 286 286 286 287 289 290 289 289 288 287 285 283 282
282 283 285 287 286 284 283 284 286 287 288 288 288 287 286 286 286 286 287 287 287 287 287 287 287 287 288 288 288 288 289 288 288 288 288 288 289 289 289 290 289 289 289 289 289 288 287 286 286 286 285 285 286 287 288 288 288 286 286 284 282 282
285 285 285 286 285 284 282 281 284 286 287 286 284 283 284 285 286 287 286 286 286 286 286 287 287 287 287 287 288 289 289 289 288 288 288 288 289 289 289 290 289 289 289 289 289 289 287 285 285 285 284 285 286 287 287 287 287 285 284 282 282 282
283 284 284 286 287 283 281 280 281 283 283 283 282 281 282 284 285 286 286 286 286 286 286 287 286 287 287 287 288 288 288 289 289 288 289 288 289 289 289 290 289 289 289 290 290 289 287 286 285 285 285 284 285 286 286 286 285 285 284 281 280 279
283 284 283 285 285 282 281 280 280 280 280 282 279 279 282 285 284 285 284 285 285 286 286 286 286 287 287 287 288 288 289 289 288 289 289 289 290 291 290 290 290 290 290 291 290 289 287 286 285 285 286 284 285 283 281 282 282 282 282 281 279 276
281 282 283 284 282 280 280 279 278 278 277 277 278 278 283 284 283 282 284 284 284 284 284 285 286 287 287 287 287 287 288 287 288 289 289 289 288 288 289 289 290 291 291 290 290 290 289 288 287 286 285 285 284 284 283 283 283 282 280 281 281 279
282 280 282 283 280 279 278 278 276 275 276 275 276 276 280 280 283 284 284 284 284 284 285 285 286 286 287 287 287 287 287 288 288 287 288 289 288 288 288 288 288 289 289 290 289 286 288 286 286 286 285 284 284 284 284 283 283 283 282 283 279 277
283 283 284 283 281 280 279 277 275 273 273 272 272 274 277 279 282 284 285 284 283 284 285 285 286 286 287 287 287 287 287 287 287 287 286 287 287 287 288 288 288 288 288 288 288 285 285 285 286 285 284 284 284 284 284 284 284 284 284 283 281 276
282 281 280 280 279 278 277 276 275 273 273 273 273 274 276 277 279 282 282 282 283 283 285 285 286 286 286 286 286 287 287 287 287 285 285 284 285 286 287 288 288 288 288 288 287 287 286 285 285 285 285 284 284 284 284 284 285 285 284 283 278 276
279 278 278 277 276 275 274 275 274 274 274 275 276 276 277 278 278 279 280 280 281 282 284 285 286 286 286 287 287 287 287 287 287 287 286 283 282 283 284 285 286 287 287 288 287 287 286 286 285 285 285 284 284 285 284 285 284 285 284 281 277 277
276 277 275 273 273 273 273 274 273 273 273 274 275 276 278 279 280 280 278 278 280 281 283 284 285 286 286 287 287 287 286 286 286 286 285 284 283 282 282 281 282 284 286 286 286 286 286 285 285 285 285 284 285 285 285 285 283 281 280 277 277 277
274 273 272 272 273 274 274 275 274 273 273 273 274 275 277 279 280 281 282 281 280 280 281 283 285 286 286 287 287 287 286 286 285 285 284 283 283 282 280 277 277 278 282 284 284 285 285 285 285 285 285 285 285 285 285 281 279 277 276 274 275 275
Wind_Speed
9 8 9 7 7 6 5 4 5 5 6 7 10 12 12 12 11 10 9 10 10 11 13 13 13 12 11 10 9 8 10 11 11 11 11 8 8 8 8 9 9 9 10 9 9 9 9 9 9 9 8 8 8 8 8 8 8 7 7 6 7 7
7 8 7 7 8 7 7 6 4 6 7 7 8 6 5 6 8 9 11 11 11 11 9 10 11 11 11 10 10 10 11 12 11 11 10 11 7 9 9 9 10 10 10 9 9 8 8 8 8 8 8 8 8 8 7 7 7 7 8 7 7 6
4 4 6 6 4 4 5 6 7 7 6 8 8 10 9 9 10 9 10 9 10 10 12 11 10 10 9 9 9 11 11 10 10 10 10 6 9 8 9 10 10 10 10 10 9 9 8 8 8 7 7 7 7 7 7 6 7 7 6 6 6 5
6 5 3 2 2 4 5 6 5 6 8 9 8 7 8 10 9 10 10 8 8 10 10 8 6 7 7 9 10 11 11 11 11 10 6 9 8 8 10 10 9 9 9 9 9 8 8 8 8 7 7 7 7 7 6 6 6 7 7 5 6 5
6 6 6 5 5 4 4 4 6 8 7 7 7 8 10 9 9 7 6 7 8 9 7 6 7 8 9 11 11 11 12 11 9 6 8 8 7 8 9 9 8 8 8 9 8 8 8 8 8 7 7 8 8 7 6 6 6 6 6 6 6 5
6 6 6 5 5 6 6 5 5 6 6 7 6 10 10 7 6 6 6 6 7 6 6 8 7 9 9 11 11 12 11 9 7 6 7 8 7 9 7 6 7 8 8 8 8 8 8 8 7 7 7 8 8 6 7 6 6 6 6 6 5 6
6 7 6 5 5 5 5 5 5 5 5 5 8 8 6 5 4 6 6 5 7 6 7 8 8 9 10 11 9 10 8 7 6 6 8 7 8 8 6 6 6 7 8 8 8 8 8 8 7 8 7 7 6 7 7 6 6 6 6 6 5 5
4 5 6 5 5 5 5 5 5 5 6 7 6 6 5 5 2 4 4 4 6 7 8 9 8 10 11 11 10 10 8 7 7 7 7 8 9 7 7 8 7 8 8 7 8 8 8 8 7 8 8 7 6 5 5 5 5 5 5 4 4 5
5 5 5 5 5 5 6 6 7 6 6 7 5 4 4 3 3 4 5 5 7 8 10 9 10 9 9 9 8 6 6 7 7 8 8 7 7 7 8 7 8 7 8 8 7 8 7 7 7 7 6 6 5 5 5 5 5 4 3 3 4 4
3 4 5 5 6 6 6 6 7 6 7 8 6 5 5 4 5 6 6 7 8 9 10 9 7 7 8 6 5 6 6 7 7 8 6 6 8 8 8 8 8 7 7 7 7 7 6 7 7 6 5 5 5 5 4 4 5 4 4 4 3 3
3 3 5 6 5 7 7 6 6 6 6 6 5 5 6 5 6 7 8 8 10 11 8 6 6 6 6 5 5 6 7 7 7 6 6 7 7 6 7 7 7 7 6 4 5 5 5 6 6 6 6 6 4 4 5 5 5 5 5 4 3 2
5 5 5 6 6 7 7 7 7 7 7 7 6 7 6 7 8 9 10 11 12 8 6 6 6 6 5 6 7 7 7 6 6 7 6 7 6 6 5 5 5 7 7 6 4 4 5 5 4 6 9 7 7 6 5 5 5 6 5 5 4 3
5 5 5 7 8 9 9 8 6 6 7 7 6 7 7 8 10 10 10 13 10 7 6 6 6 6 7 8 7 6 7 7 6 7 7 6 6 6 6 6 6 6 6 6 7 6 5 4 5 8 8 9 9 7 6 6 5 4 5 6 6 6
6 6 7 7 8 8 8 7 6 5 9 5 7 8 7 8 9 11 11 10 8 8 8 7 6 7 8 7 8 7 7 6 7 7 7 6 6 6 5 5 6 5 5 5 5 6 6 5 6 9 10 10 10 9 7 6 6 6 6 6 7 6
7 7 7 7 9 9 7 6 6 8 7 5 7 6 7 8 10 10 10 8 8 9 8 7 8 8 8 8 7 7 7 8 8 8 8 9 6 5 7 7 6 6 5 6 7 6 6 5 7 10 11 11 12 11 8 5 6 7 7 6 6 6
6 7 9 9 10 7 4 6 7 8 3 4 5 7 7 7 8 9 9 8 9 8 8 9 9 9 9 8 8 7 8 9 10 7 6 6 6 8 7 6 7 6 7 7 7 6 6 6 9 12 12 12 12 12 10 7 7 7 7 7 8 7
8 9 9 10 9 7 5 6 7 6 2 4 4 5 6 6 6 8 9 9 9 8 9 10 10 10 9 9 8 8 9 10 8 8 8 8 9 9 9 9 8 8 8 7 7 6 7 8 12 13 13 13 13 13 11 7 7 7 6 6 7 7
12 11 10 5 5 6 6 8 5 5 6 4 5 5 5 5 7 8 8 10 10 10 10 11 11 10 9 9 9 10 11 10 10 10 8 7 7 6 6 6 8 9 9 8 8 8 9 8 13 14 14 14 13 13 7 7 7 7 6 6 6 6
12 12 7 7 6 5 6 7 4 5 4 5 6 6 5 6 8 10 10 11 10 11 11 11 11 11 10 10 10 11 11 11 11 9 7 8 8 9 9 10 9 7 9 9 9 10 8 8 11 13 13 13 14 10 5 6 5 6 7 6 6 5
9 7 5 6 6 7 7 5 2 3 4 6 5 6 6 7 11 11 10 11 12 12 11 10 11 11 11 10 13 13 11 8 6 8 7 10 10 10 10 8 7 7 8 10 10 10 8 7 10 14 13 14 15 12 8 7 6 6 5 5 5 4
7 5 3 5 7 10 5 1 2 4 6 6 6 6 7 10 12 11 12 14 12 9 8 9 10 10 10 11 12 9 9 9 9 5 5 7 6 6 5 7 7 7 7 8 9 10 11 8 9 14 14 15 16 12 7 7 7 8 6 5 5 3
5 7 6 6 10 8 5 3 4 5 7 8 5 6 9 12 14 14 10 8 5 6 7 8 9 9 10 11 8 7 7 5 5 7 7 6 5 5 5 6 6 8 7 6 7 9 10 8 8 11 15 15 16 13 9 7 8 8 9 7 7 6
3 6 7 8 9 8 5 4 5 7 8 7 6 10 12 14 12 8 6 4 5 7 8 8 10 11 10 8 8 6 5 6 7 6 7 7 5 5 6 8 6 6 6 6 7 7 8 8 10 10 15 16 15 13 12 8 8 8 9 9 7 5
5 6 8 8 7 7 4 4 6 7 7 7 11 14 14 12 9 6 4 6 6 7 8 10 9 9 9 7 7 8 8 6 6 6 7 6 7 8 8 7 7 7 6 6 7 7 7 8 12 10 15 16 17 14 14 9 8 8 9 7 7 7
5 8 7 5 5 5 5 5 7 8 6 10 14 12 11 9 4 4 5 6 7 8 9 9 10 9 7 8 9 8 8 7 8 8 8 8 8 9 9 9 8 7 7 6 6 6 6 7 8 13 12 16 17 15 12 11 9 10 8 10 9 7
4 7 5 3 4 4 4 6 7 7 8 14 14 10 6 2 4 4 5 6 7 7 8 7 8 7 7 8 8 9 9 9 9 8 9 9 8 8 9 8 7 7 8 9 7 6 6 5 6 10 14 14 18 15 14 12 11 13 7 6 7 6
7 6 9 2 3 4 5 5 7 7 8 9 5 5 5 5 4 5 6 7 7 6 6 6 7 8 8 8 9 10 9 9 9 9 8 9 9 9 9 8 8 9 8 7 8 7 6 6 6 6 10 14 15 16 14 13 14 12 10 6 5 8
4 4 8 8 1 1 4 6 7 8 8 2 3 5 4 4 5 6 8 7 6 7 6 7 7 7 7 8 7 8 7 9 9 9 8 9 9 10 10 9 8 9 8 9 8 8 8 6 7 7 7 9 11 12 15 15 15 13 12 9 9 8
6 7 5 9 2 2 1 4 5 8 6 6 4 3 3 4 5 6 6 7 6 5 7 8 7 7 7 7 7 7 7 7 8 8 8 9 10 10 10 9 10 10 9 10 10 8 7 9 8 8 7 8 8 7 9 10 10 11 10 8 8 9
6 8 8 10 8 4 4 2 3 5 5 5 4 4 3 4 5 6 7 7 6 6 7 7 8 9 7 8 9 9 9 8 9 10 11 12 12 11 11 10 11 12 12 11 9 7 7 8 9 9 11 10 9 8 7 7 7 7 7 7 6 7
7 7 7 10 7 6 5 5 5 6 6 6 4 3 4 6 5 6 6 5 4 6 5 5 5 7 7 7 8 9 9 11 11 12 10 9 9 11 11 11 10 9 8 8 8 10 10 8 11 12 7 8 9 8 7 6 7 7 6 10 14 8
5 7 9 9 5 4 5 5 5 5 5 5 5 2 4 5 4 4 6 4 4 4 3 4 4 5 5 6 7 7 7 8 10 9 9 8 11 13 11 8 8 6 6 7 8 8 11 10 5 10 14 15 14 14 14 13 12 12 11 15 18 11
7 6 8 7 5 4 4 4 4 6 6 6 5 3 4 4 5 5 5 3 4 4 4 4 4 4 5 5 5 5 6 5 7 11 13 11 9 12 14 12 9 9 10 8 5 4 7 9 14 16 16 16 15 15 16 15 16 18 18 20 13 8
9 8 9 9 7 6 5 4 4 5 7 7 7 5 4 4 4 6 5 4 4 4 5 4 4 4 5 4 4 5 5 5 6 5 5 7 9 10 13 13 11 10 11 13 11 8 4 11 16 18 18 18 18 16 16 16 18 19 20 20 14 8
7 7 7 7 8 8 6 5 4 4 5 6 6 6 5 4 4 6 6 4 4 4 5 5 5 5 5 5 5 5 5 6 6 6 4 1 3 3 9 12 13 12 13 13 13 15 13 12 13 18 19 19 16 14 15 16 18 20 21 19 9 7
6 6 6 6 6 6 6 6 4 5 4 4 5 4 5 5 5 5 5 4 4 4 4 5 5 5 5 5 5 5 5 5 5 5 5 5 3 1 2 3 4 9 12 13 15 15 13 14 17 18 18 18 18 18 17 17 15 19 21 14 9 6
6 5 4 5 5 5 5 5 3 2 3 3 3 3 4 5 5 4 5 7 6 4 5 4 4 4 4 4 5 5 6 6 5 5 6 7 7 7 6 2 2 2 2 5 8 11 13 15 16 17 17 18 18 18 20 18 13 13 10 5 3 5
5 4 4 5 5 6 7 7 3 3 3 3 2 3 4 4 6 6 4 4 5 5 5 4 4 4 4 5 5 5 5 4 5 5 5 5 6 6 6 4 2 1 3 5 5 10 13 15 16 16 16 17 18 19 21 12 10 10 8 6 6 7
Wind_Direction
239 240 236 236 235 235 238 251 224 217 216 211 207 207 206 204 203 205 210 209 209 209 209 208 209 212 215 214 209 194 202 211 212 211 216 210 197 193 191 197 204 206 209 212 214 213 214 214 216 213 216 217 225 225 229 226 225 230 231 223 216 221
224 222 223 229 227 222 224 223 217 212 212 208 215 224 214 206 204 201 209 209 209 213 211 213 211 211 211 206 198 201 209 215 210 214 214 212 187 198 193 197 204 205 208 208 212 213 212 213 214 212 215 215 220 220 225 223 219 227 228 224 217 220
271 266 246 246 263 269 254 217 208 210 200 210 209 207 208 209 210 203 215 204 214 212 213 212 206 210 204 201 200 207 215 217 212 215 215 179 199 187 194 202 206 206 206 207 209 211 211 210 213 211 214 216 221 221 220 216 217 224 228 221 229 224
283 289 294 270 298 274 242 231 225 218 209 210 206 208 214 209 210 208 211 207 211 215 217 212 200 199 194 203 205 211 216 216 214 213 186 199 197 184 200 205 205 202 203 208 209 209 212 213 214 212 213 217 219 222 217 221 217 222 227 215 227 223
266 277 286 282 244 254 259 248 219 219 215 211 213 205 220 209 213 206 204 205 209 215 210 197 200 195 201 206 210 213 217 217 215 189 194 199 194 197 203 203 198 199 202 207 207 207 210 211 212 211 210 214 214 217 222 217 217 221 227 226 226 227
281 289 272 260 253 237 228 225 238 241 232 219 209 219 223 214 211 200 198 205 213 208 198 206 204 201 207 211 214 216 218 213 203 181 195 200 195 201 205 198 197 199 203 205 205 206 208 209 209 210 209 210 203 212 221 221 219 220 221 222 224 227
261 249 243 241 245 247 239 237 237 236 241 229 224 231 226 222 201 199 206 199 207 204 205 211 204 208 212 216 215 219 214 204 193 185 199 197 203 201 188 200 199 201 202 203 202 203 205 206 204 207 209 213 212 210 215 217 215 215 215 216 219 214
266 270 252 246 239 229 226 228 233 239 239 239 232 235 233 231 197 209 196 195 203 211 213 215 209 214 215 215 216 216 206 195 195 198 205 199 202 192 194 192 197 198 202 203 204 202 203 202 201 202 204 204 202 208 209 208 204 205 198 194 188 179
258 256 265 246 242 231 226 220 224 221 225 241 233 226 223 195 166 206 203 201 215 216 219 213 214 213 216 215 216 205 198 199 200 197 204 196 199 189 193 197 194 202 199 202 199 202 196 197 195 198 201 193 190 196 198 194 181 171 177 184 184 179
284 279 265 263 248 240 239 233 230 225 217 230 215 190 185 186 185 202 208 198 215 220 222 218 214 215 219 216 208 204 203 199 198 202 195 184 199 192 189 189 191 195 197 195 192 193 190 189 186 191 200 193 177 167 175 174 170 161 161 162 178 189
275 275 268 264 282 268 257 250 242 237 244 242 224 197 206 187 182 203 210 209 218 222 219 212 211 212 214 208 204 202 202 200 198 193 190 192 195 187 185 182 179 169 182 179 182 171 174 181 187 176 175 163 156 162 170 176 171 168 167 171 176 187
260 253 262 280 271 268 264 259 250 237 234 237 208 207 200 174 202 191 213 221 224 219 209 208 202 199 194 197 194 204 197 197 195 187 186 190 181 172 169 168 172 173 174 174 175 170 171 181 170 176 178 175 169 172 172 170 176 171 171 170 162 170
255 254 243 243 238 234 235 235 230 222 231 228 207 213 197 183 199 214 216 225 214 213 209 201 199 186 196 200 203 200 197 195 186 182 180 175 168 163 162 161 168 182 181 179 177 181 188 181 172 172 174 167 161 158 163 171 181 175 171 169 170 177
251 242 241 237 234 233 233 235 228 225 247 208 211 208 185 193 199 215 222 228 213 206 210 200 191 193 203 199 204 198 196 183 181 186 180 173 175 173 160 174 181 179 182 177 177 184 184 185 180 173 169 168 168 171 166 166 167 172 176 178 178 176
240 237 248 254 255 248 232 196 196 230 234 201 217 170 186 205 205 215 222 220 208 211 203 192 193 203 204 203 197 192 185 187 189 188 182 189 181 165 187 196 182 194 188 185 186 191 181 186 184 178 177 174 171 169 155 165 167 170 179 177 174 174
252 240 236 244 252 246 233 180 209 241 213 187 157 178 196 202 213 210 221 215 215 209 201 197 197 204 204 194 193 188 190 192 198 190 183 170 176 192 196 196 203 201 203 200 197 195 193 197 193 186 183 183 176 170 165 170 174 181 176 175 180 179
249 255 256 253 253 257 241 249 232 246 205 168 178 196 191 204 213 207 216 219 217 205 203 200 199 205 198 194 191 191 199 199 191 187 188 184 189 191 195 194 197 202 201 201 195 194 200 206 192 188 185 184 181 178 173 173 178 175 179 181 178 175
251 250 253 228 198 220 203 226 205 182 222 174 198 190 199 197 214 226 217 224 217 209 206 200 202 203 197 193 192 196 203 200 195 193 185 185 194 195 186 201 193 191 191 188 186 187 196 199 189 183 183 180 181 172 166 170 171 168 167 169 168 166
258 264 271 281 272 252 236 233 189 181 168 177 200 184 194 195 220 227 221 225 222 213 207 203 201 201 198 193 195 204 205 199 199 196 179 191 197 193 197 197 191 185 181 185 189 188 191 189 192 184 181 179 171 158 165 164 161 163 167 166 154 151
263 270 279 286 289 262 252 258 151 161 194 219 193 184 197 202 229 227 218 223 221 217 207 203 200 201 198 195 204 208 206 202 201 201 188 196 194 199 199 184 185 188 188 184 190 190 183 189 188 184 180 176 172 167 167 168 163 166 158 142 149 149
262 286 302 259 268 267 256 230 151 172 222 233 216 195 204 221 235 228 217 223 216 206 203 205 203 202 200 204 212 204 201 201 201 188 181 204 197 203 178 186 187 191 195 196 187 186 185 184 187 186 180 179 175 170 167 165 164 162 168 158 158 162
325 296 283 269 258 265 274 169 163 199 220 235 207 200 221 232 234 232 225 227 199 187 191 197 206 208 204 210 204 198 204 182 177 188 189 197 194 191 189 190 192 191 200 192 192 192 191 178 182 187 183 180 177 171 167 170 168 171 169 173 164 157
240 248 252 251 255 261 248 168 184 212 221 223 203 223 228 234 238 236 225 200 183 187 194 194 199 206 212 205 198 185 181 184 190 179 186 192 190 186 192 195 194 194 194 195 199 193 197 185 175 187 184 182 178 172 172 179 183 169 167 171 158 173
249 254 254 252 263 262 237 188 212 226 224 217 224 227 231 236 236 220 194 191 194 191 194 198 203 201 201 192 180 184 193 184 176 182 185 186 188 193 195 192 194 196 193 195 199 204 200 191 184 173 186 183 184 179 180 180 185 167 159 157 163 164
243 252 258 258 237 230 217 191 217 224 219 226 236 237 240 245 236 208 198 194 196 202 202 201 196 197 189 188 187 188 192 177 178 180 179 188 194 196 197 196 194 193 195 195 204 205 205 197 192 181 178 185 184 184 180 180 169 169 167 162 170 176
268 278 277 255 246 231 215 194 225 226 218 234 237 237 254 266 224 197 205 211 211 208 206 199 195 190 187 188 183 187 186 186 188 181 183 184 190 197 202 205 195 195 197 199 199 203 204 199 192 190 184 183 186 182 179 176 171 166 173 163 160 154
285 296 298 267 227 230 211 202 217 237 240 255 273 265 247 233 206 198 219 223 219 211 205 187 188 189 191 189 182 188 191 190 182 189 191 185 190 196 206 205 197 203 206 200 202 201 198 194 196 194 193 187 186 186 180 176 171 166 145 139 127 144
277 287 294 303 227 219 196 202 198 221 233 286 286 247 237 220 211 221 228 225 214 207 182 186 195 196 193 188 188 194 192 187 187 193 190 193 198 198 202 203 197 206 205 209 208 201 193 184 194 197 189 191 189 186 183 178 174 161 160 143 137 144
328 319 312 305 307 349 243 197 212 233 261 277 285 286 237 221 221 235 239 232 222 199 187 192 194 188 188 188 190 193 191 188 190 195 196 195 200 203 203 201 200 204 206 211 209 197 180 189 192 191 188 188 184 185 180 173 169 153 130 113 133 135
320 309 312 301 310 346 331 315 264 264 271 273 271 259 234 235 232 236 241 232 214 207 198 203 193 186 189 192 189 192 194 197 194 198 201 196 197 196 205 203 205 205 206 211 203 190 186 195 198 196 193 187 180 176 168 163 152 149 148 135 123 125
316 303 298 292 311 331 330 327 314 310 306 297 297 258 233 246 245 247 253 245 221 223 210 207 195 201 196 197 201 208 203 195 196 203 211 211 202 204 202 204 212 211 211 207 199 193 202 196 204 206 170 171 168 159 148 153 152 145 146 152 142 122
281 295 297 292 311 322 321 320 320 316 314 312 310 285 248 258 259 257 257 250 240 236 212 215 214 212 210 207 206 207 221 222 214 209 207 213 206 216 223 211 218 204 195 202 212 197 204 210 191 131 156 171 167 160 157 157 156 160 152 155 151 139
315 299 293 297 330 327 326 324 325 328 323 333 323 305 271 278 271 265 264 251 245 235 224 218 220 218 219 219 216 216 219 222 226 222 220 217 203 205 213 216 213 184 186 190 194 176 173 137 141 153 160 168 170 166 161 155 163 163 159 154 143 141
316 318 311 320 330 327 334 343 352 343 329 337 336 333 305 279 265 267 265 252 245 231 223 216 221 219 217 222 218 219 220 223 228 234 233 236 222 208 207 212 205 189 184 190 176 155 148 155 157 159 166 172 175 170 162 158 161 163 160 162 147 140
297 301 308 315 324 328 338 339 350 0 339 343 341 345 329 301 282 275 280 279 260 243 225 212 212 211 208 222 219 223 216 221 221 203 193 32 3 246 226 215 208 197 190 188 181 175 167 168 165 165 170 174 173 163 161 158 159 160 162 156 158 162
296 297 306 316 323 323 325 333 344 355 345 334 339 329 312 301 289 280 281 282 268 248 240 229 224 221 219 211 206 211 218 228 224 218 200 177 166 76 26 1 250 218 198 193 184 183 174 166 170 170 167 167 168 167 158 155 158 162 166 169 169 158
300 302 316 325 323 326 325 319 324 323 314 315 308 299 300 296 286 276 274 280 277 249 242 231 227 228 225 220 221 218 212 207 201 198 194 196 183 172 168 168 40 25 183 179 178 174 166 165 166 167 166 163 162 157 152 147 155 165 169 156 151 155
292 302 324 330 326 322 320 310 312 331 322 316 281 294 294 293 297 288 276 266 268 262 254 238 231 223 223 226 226 218 214 208 196 194 193 184 181 174 155 99 90 64 66 129 156 163 163 161 161 162 161 161 159 158 156 162 169 144 157 138 148 146